User: anonymous   Login
Location: Unspecified
(0.0000°N, 0.0000°E)
Time: 01:17:58
(UTC+01:00)
Language:

ASC 2 Rocket - Orbit

View from above orbital plane
View from above orbital plane
View from above satellite
View from above satellite

Ground track
Ground track

The orbit data is extracted from the following two-line orbital elements,

1 21228U 91028B   16336.90986207  .00000154  00000-0 -10029-4 0  9992
2 21228  24.0006 248.6313 1143460 269.5102 151.3754 12.53292912173014
Epoch (UTC): 01 December 2016 21:50:12
Eccentricity: 0.1143460
inclination: 24.0006°
perigee height: 555 km
apogee height: 2346 km
right ascension of ascending node: 248.6313°
argument of perigee: 269.5102°
revolutions per day: 12.53292912
mean anomaly at epoch: 151.3754°
orbit number at epoch: 17301

The dashed part of the orbit path shows where the satellite is in the earth's shadow,  

DLR